GW0285 Weather Reports


time (UTC)temp
C
wind
direction
speed
KPH
gust
KPH
rain 1hr
cm
rain 24hr
cm
rain mn
cm
humidity
%
barometer
mb
20260505152724 15 345 0.0 4.8 0.00 0.00 0.00 68 1012.1
20260505151824 15 330 0.0 8.0 0.00 0.00 0.00 67 1012.0
20260505150903 14 18 0.0 11.3 0.00 0.00 0.00 67 1012.1
20260505124503 15 318 0.0 14.5 0.00 0.00 0.00 66 1013.0
20260505123624 15 353 0.0 3.2 0.00 0.00 0.00 66 1013.0
20260505122703 14 348 0.0 8.0 0.00 0.00 0.00 67 1012.9
20260505121803 14 324 0.0 8.0 0.00 0.00 0.00 67 1012.8
20260505120903 14 15 0.0 4.8 0.00 0.00 0.00 68 1012.9
20260505120004 13 329 0.0 4.8 0.00 0.00 0.00 70 1012.8
20260505115424 13 339 0.0 4.8 0.00 0.00 0.00 70 1012.7
20260505114503 14 342 0.0 14.5 0.00 0.00 0.00 69 1012.9
20260505113603 13 344 0.0 11.3 0.00 0.00 0.00 69 1012.7
20260505112703 14 346 0.0 11.3 0.00 0.00 0.00 69 1013.0
20260505111803 14 60 0.0 8.0 0.00 0.00 0.00 67 1013.0
20260505110903 13 348 1.6 16.1 0.00 0.00 0.00 70 1012.7
20260505101803 15 317 4.8 19.3 0.00 0.00 0.00 69 1012.9
20260505100903 16 318 4.8 19.3 0.00 0.00 0.00 65 1012.7
20260505100024 15 354 6.4 22.5 0.00 0.00 0.00 67 1012.5
20260505095403 15 351 6.4 16.1 0.00 0.00 0.00 68 1012.7
20260505094503 14 346 4.8 16.1 0.00 0.00 0.00 69 1012.7
20260505093603 14 321 4.8 14.5 0.00 0.00 0.00 70 1012.7
20260505092724 14 322 4.8 22.5 0.00 0.00 0.00 71 1012.7
20260505091803 14 344 6.4 19.3 0.00 0.00 0.00 70 1012.7
20260505090903 15 330 4.8 19.3 0.00 0.00 0.00 70 1012.6
20260505090003 14 338 4.8 14.5 0.00 0.00 0.00 71 1012.7
20260505085403 13 336 6.4 24.1 0.00 0.00 0.00 73 1013.0
20260505084503 13 334 4.8 16.1 0.00 0.00 0.00 74 1012.9
20260505083603 13 330 3.2 11.3 0.00 0.00 0.00 75 1012.7
20260505082703 13 319 4.8 19.3 0.00 0.00 0.00 74 1012.8
20260505081803 13 339 4.8 16.1 0.00 0.00 0.00 74 1012.7
20260505080903 13 346 4.8 16.1 0.00 0.00 0.00 74 1012.7
20260505080003 13 345 6.4 22.5 0.00 0.00 0.00 75 1012.6
20260505075403 12 341 4.8 16.1 0.00 0.00 0.00 76 1012.7
20260505074503 13 326 4.8 19.3 0.00 0.00 0.00 77 1012.7
20260505073603 13 336 3.2 16.1 0.00 0.00 0.00 76 1012.5
20260505072703 13 327 1.6 9.7 0.00 0.00 0.00 73 1012.5
20260505071803 13 338 3.2 19.3 0.00 0.00 0.00 74 1012.5
20260505070924 12 340 1.6 8.0 0.00 0.00 0.00 78 1012.6
20260505070003 12 5 3.2 14.5 0.00 0.00 0.00 82 1012.6
20260505065403 12 346 3.2 11.3 0.00 0.00 0.00 84 1012.7
20260505064503 11 320 1.6 14.5 0.00 0.00 0.00 86 1012.9
20260505063603 11 321 0.0 3.2 0.00 0.00 0.00 89 1012.9
20260505062703 11 338 0.0 8.0 0.00 0.00 0.00 90 1012.9
20260505061803 10 334 1.6 11.3 0.00 0.00 0.00 91 1012.9
20260505060903 10 353 0.0 14.5 0.00 0.00 0.00 92 1012.9
20260505060003 10 2 0.0 14.5 0.00 0.00 0.00 93 1013.0
20260505055403 10 0 0.0 0.0 0.00 0.00 0.00 93 1013.0
20260505054524 10 0 0.0 0.0 0.00 0.00 0.00 94 1013.0
20260505053603 10 0 0.0 0.0 0.00 0.00 0.00 94 1013.0
20260505052724 10 0 0.0 0.0 0.00 0.00 0.00 94 1013.1
20260505051803 10 0 0.0 0.0 0.00 0.00 0.00 94 1012.9
20260505050903 9 0 0.0 0.0 0.00 0.00 0.00 94 1012.7
20260505040903 10 0 0.0 0.0 0.00 0.00 0.00 92 1012.9
20260505040004 10 0 0.0 0.0 0.00 0.00 0.00 93 1013.1
20260505035424 10 0 0.0 0.0 0.00 0.00 0.00 93 1013.0
20260505034524 10 0 0.0 0.0 0.00 0.00 0.00 93 1013.1
20260505033603 10 0 0.0 0.0 0.00 0.00 0.00 93 1013.1
20260505032703 10 0 0.0 0.0 0.00 0.00 0.00 93 1013.2
20260505031803 10 0 0.0 0.0 0.00 0.00 0.00 93 1013.3
20260505030903 10 0 0.0 0.0 0.00 0.00 0.00 93 1013.3
20260505030003 10 0 0.0 0.0 0.00 0.00 0.00 92 1013.1
20260505025403 10 0 0.0 0.0 0.00 0.00 0.00 92 1013.3
20260505024503 10 0 0.0 0.0 0.00 0.00 0.00 91 1013.2
20260505023624 10 0 0.0 0.0 0.00 0.00 0.00 91 1013.1
20260505022724 11 0 0.0 0.0 0.00 0.00 0.00 90 1013.0
20260505021803 11 0 0.0 0.0 0.00 0.00 0.00 90 1013.1
20260505020924 11 0 0.0 0.0 0.00 0.00 0.00 89 1013.1
20260505020004 11 0 0.0 0.0 0.00 0.00 0.00 89 1013.3
20260505015403 11 326 0.0 11.3 0.00 0.00 0.00 89 1013.4
20260505014524 11 288 0.0 11.3 0.00 0.00 0.00 89 1013.4
20260505013603 11 336 0.0 1.6 0.00 0.00 0.00 89 1013.5
20260505012724 11 8 0.0 8.0 0.00 0.00 0.00 89 1013.5
20260505011803 11 356 0.0 4.8 0.00 0.00 0.00 89 1013.8
20260505010903 11 335 0.0 4.8 0.00 0.00 0.00 89 1013.7
20260505010004 11 331 0.0 11.3 0.00 0.00 0.00 89 1013.6
20260505005424 11 0 0.0 0.0 0.00 0.00 0.00 90 1013.8
20260505004503 11 0 0.0 0.0 0.00 0.00 0.00 90 1013.7
20260505003624 11 341 0.0 4.8 0.00 0.00 0.00 90 1014.0
20260505002703 11 0 0.0 0.0 0.00 0.00 0.00 90 1013.9
20260505001803 11 0 0.0 0.0 0.00 0.00 0.00 90 1013.9
20260505000903 11 0 0.0 0.0 0.00 0.00 0.00 90 1014.0
20260505000003 11 0 0.0 0.0 0.00 0.00 0.00 90 1013.9
20260504235403 11 0 0.0 0.0 0.00 0.00 0.00 89 1013.9
20260504234524 12 327 0.0 1.6 0.00 0.00 0.00 89 1013.8
20260504233603 12 343 0.0 8.0 0.00 0.00 0.00 89 1013.8
20260504232703 12 347 1.6 11.3 0.00 0.00 0.00 89 1013.9
20260504231803 12 320 0.0 1.6 0.00 0.00 0.00 88 1013.9
20260504230903 12 3 0.0 11.3 0.00 0.00 0.00 89 1014.0
20260504230024 12 342 0.0 8.0 0.00 0.00 0.00 88 1014.0
20260504225403 12 42 0.0 3.2 0.00 0.00 0.00 88 1014.0
20260504224524 12 349 0.0 3.2 0.00 0.00 0.00 88 1014.1
20260504223624 12 352 0.0 8.0 0.00 0.00 0.00 87 1013.9
20260504222703 12 340 0.0 8.0 0.00 0.00 0.00 87 1014.2
20260504221803 12 0 0.0 0.0 0.00 0.00 0.00 87 1014.2
20260504220903 12 323 0.0 1.6 0.00 0.00 0.00 87 1014.1
20260504220003 12 342 0.0 8.0 0.00 0.00 0.00 87 1014.4
20260504215403 12 329 0.0 4.8 0.00 0.00 0.00 88 1014.1
20260504214503 12 342 0.0 4.8 0.00 0.00 0.00 88 1014.1
20260504213603 12 0 0.0 0.0 0.00 0.00 0.00 88 1014.4
20260504212703 12 0 0.0 0.0 0.00 0.00 0.00 89 1014.3
20260504211824 12 0 0.0 0.0 0.00 0.00 0.00 89 1014.3
20260504210903 12 0 0.0 0.0 0.00 0.00 0.00 90 1014.5
20260504210024 13 0 0.0 0.0 0.00 0.00 0.00 90 1014.1
20260504205424 13 0 0.0 0.0 0.00 0.00 0.00 90 1014.2
20260504204524 13 0 0.0 0.0 0.00 0.00 0.00 89 1014.1
20260504203624 13 0 0.0 0.0 0.00 0.00 0.00 89 1014.2
20260504202703 13 0 0.0 0.0 0.00 0.00 0.00 88 1014.3
20260504201803 13 0 0.0 0.0 0.00 0.00 0.00 88 1014.3
20260504200903 13 0 0.0 0.0 0.00 0.00 0.00 88 1014.2
20260504200003 13 0 0.0 0.0 0.00 0.00 0.00 88 1013.9
20260504195403 13 0 0.0 0.0 0.00 0.00 0.00 87 1014.0
20260504194503 13 0 0.0 0.0 0.00 0.00 0.00 87 1014.0
20260504193603 13 0 0.0 0.0 0.00 0.00 0.00 87 1013.8
20260504192703 13 0 0.0 0.0 0.00 0.00 0.00 87 1013.7
20260504191803 13 0 0.0 0.0 0.00 0.00 0.00 87 1013.9
20260504190903 13 0 0.0 0.0 0.00 0.00 0.00 88 1013.8
20260504190003 14 0 0.0 0.0 0.00 0.00 0.00 88 1013.7
20260504185424 14 0 0.0 0.0 0.00 0.00 0.00 87 1013.7
20260504184503 14 321 0.0 4.8 0.00 0.00 0.00 86 1013.6
20260504183624 14 0 0.0 0.0 0.00 0.00 0.00 86 1013.6
20260504182703 15 340 0.0 3.2 0.00 0.00 0.00 85 1013.7
20260504181824 15 332 0.0 8.0 0.00 0.00 0.00 85 1013.7
20260504180903 15 0 0.0 0.0 0.00 0.00 0.00 85 1013.6
20260504180003 15 0 0.0 0.0 0.00 0.00 0.00 84 1013.7
20260504175403 15 0 0.0 0.0 0.00 0.00 0.00 85 1013.7
20260504174503 15 0 0.0 0.0 0.00 0.00 0.00 84 1013.6
20260504173624 15 0 0.0 0.0 0.00 0.00 0.00 84 1013.8
20260504172724 15 0 0.0 0.0 0.00 0.00 0.00 84 1013.6
20260504171803 15 0 0.0 0.0 0.00 0.00 0.00 83 1013.6
20260504170903 15 0 0.0 0.0 0.00 0.00 0.00 82 1013.6